[Date Prev][Date Next][Thread Prev][Thread Next] - [Date Index][Thread Index][Author Index]

2 Line ISS Keps 3-20



ISS
1 25544U 98067A   04080.34965035  .00019792  00000-0  18658-3 0  4047
2 25544  51.6287  58.2996 0010605 299.3924 220.1507 15.67006962304376


----
Via the sarex mailing list at AMSAT.ORG courtesy of AMSAT-NA.
To unsubscribe, send "unsubscribe sarex" to Majordomo@amsat.org



AMSAT Top AMSAT Home